Showing default

HULIANWANG DIGUI-30, 64283

Orbit data source: Space-Track

HULIANWANG DIGUI-30, 64283 is a payload satellite owned by Zhongguo Xingwang (CN) in LEO that was launched on Thu, 05 Jun 2025 UTC via a CHANG ZHENG 6A launch vehicle from the Taiyaun Space Center, China (TSC). Payload-class satellites include a variety of spacecraft equipped with specific instruments for various scientific and technological missions. These include communications satellites like Starlink; space stations such as the ISS; scientific satellites like the Hubble; Earth observation satellites from companies like Planet Labs, Umbra, and HawkEye 360; GPS; miniature CubeSats for education and research; and military/defense satellites.

Loading next visibility...
Identifier
64283, 2025-121A
Orbit
LEO
Country
Flag of CNCN / PRC
Related business
Manufacturer
SECM
Mission
Operational Civil Communications
Bus & Motor
XINGWANG S, Unknown motor
Mass
~800 kg wet, ~800 kg dry
Launch date (UTC)
2025-06-05 (1 year ago)
Launch vehicle
CHANG ZHENG 6A
Launch site
Taiyaun Space Center, China (TSC)
Object type
Payload
Rocket body
Debris
Shape & HBR
Box + 2 Pan, 5.0 m
Radar Cross Section
5.935 m², Large (>1 m²)

Expand to show TLE details & history
Last TLE update: 10 hours ago

TLE from 10 hours ago
0 HULIANWANG DIGUI-30
1 64283U 25121A   26144.89927283  .00000054  00000-0  92114-4 0  9999
2 64283  86.5009  21.4194 0001723  88.3991 271.7340 13.24410278 47079
Epoch: 2026-05-24T21:34Z
TLE epoch observation values (Epoch: 2026-05-24T21:34:57.172Z)
Latitude
-0.00006°
Longitude
175.18638°
Altitude
1,170.776 km
Speed
7.268 km/s
True Right ascension
01h 25m 40s
True Declination
0° 00' 00"
Sunlit
Object was in daylight at epoch
Visualization orbit readout
Latitude
Unknown
Longitude
Unknown
Altitude
Unknown
Speed
Unknown
Apparent Right ascension
Unknown
Apparent Declination
Unknown
Sunlit
N/A
Visualization observer readout
Local Sidereal Time
16:37:14
Azimuth
Unknown
Elevation
Unknown
Doppler factor
Unknown
Orbital elements
Apogee altitude
1,166.341 km
Perigee altitude
1,163.741 km
Semi-major axis
7,543.178 km
Eccentricity
0.00017
Inclination
86.5009°
RAAN
21.4194°
Arg. of periapsis
88.3991°
True anomaly
271.71426°
Mean anomaly
271.734°
Eccentric anomaly
271.72413°
Mean motion
3.31293 °/min
Orbital period
108.67 mins
BSTAR
0.000092114
Loading maneuver chart data...
Computing Atmospheric mass density...
Loading historical data...
Loading historical data...
Loading historical data...
Loading historical data...
Loading historical data...
Loading historical data...
Loading historical data...

Documentation

Showing up to 5 results
|